owner,sensor,date,latitude,longitude,vertical_datum,mass_concentration_of_oxygen_in_sea_water,qcFlag 
NERRS,ioos:station:NOAA.NERRS:apaebwq:1,2017-09-01T00:45:00Z,29.7858,-84.8752,1.82,5.8,1111122 
NERRS,ioos:station:NOAA.NERRS:apaebwq:1,2017-09-01T01:45:00Z,29.7858,-84.8752,1.83,5.0,1111122 
NERRS,ioos:station:NOAA.NERRS:apaebwq:1,2017-09-01T02:45:00Z,29.7858,-84.8752,1.92,4.5,1111122 
NERRS,ioos:station:NOAA.NERRS:apaebwq:1,2017-09-01T03:45:00Z,29.7858,-84.8752,2.06,5.7,1111122 
NERRS,ioos:station:NOAA.NERRS:apaebwq:1,2017-09-01T04:45:00Z,29.7858,-84.8752,2.17,5.0,1111122 
NERRS,ioos:station:NOAA.NERRS:apaebwq:1,2017-09-01T05:45:00Z,29.7858,-84.8752,2.25,5.1,1111122 
NERRS,ioos:station:NOAA.NERRS:apaebwq:1,2017-09-01T06:45:00Z,29.7858,-84.8752,2.25,3.2,1111122 
NERRS,ioos:station:NOAA.NERRS:apaebwq:1,2017-09-01T07:45:00Z,29.7858,-84.8752,2.23,3.8,1111122 
NERRS,ioos:station:NOAA.NERRS:apaebwq:1,2017-09-01T08:45:00Z,29.7858,-84.8752,2.23,4.7,1111122 
NERRS,ioos:station:NOAA.NERRS:apaebwq:1,2017-09-01T09:45:00Z,29.7858,-84.8752,2.25,4.5,1111122 
NERRS,ioos:station:NOAA.NERRS:apaebwq:1,2017-09-01T10:45:00Z,29.7858,-84.8752,2.27,4.0,1111122 
NERRS,ioos:station:NOAA.NERRS:apaebwq:1,2017-09-01T11:45:00Z,29.7858,-84.8752,2.25,3.7,1111122 
NERRS,ioos:station:NOAA.NERRS:apaebwq:1,2017-09-01T12:45:00Z,29.7858,-84.8752,2.24,3.5,1111122 
NERRS,ioos:station:NOAA.NERRS:apaebwq:1,2017-09-01T13:45:00Z,29.7858,-84.8752,2.24,3.1,1111122 
NERRS,ioos:station:NOAA.NERRS:apaebwq:1,2017-09-01T14:45:00Z,29.7858,-84.8752,2.31,3.0,1111122 
NERRS,ioos:station:NOAA.NERRS:apaebwq:1,2017-09-01T15:45:00Z,29.7858,-84.8752,2.34,2.2,1111122 
NERRS,ioos:station:NOAA.NERRS:apaebwq:1,2017-09-01T16:45:00Z,29.7858,-84.8752,2.31,0.6,1111122 
NERRS,ioos:station:NOAA.NERRS:apaebwq:1,2017-09-01T17:45:00Z,29.7858,-84.8752,2.25,3.7,1111122 
NERRS,ioos:station:NOAA.NERRS:apaebwq:1,2017-09-01T18:45:00Z,29.7858,-84.8752,2.16,5.8,1111122 
NERRS,ioos:station:NOAA.NERRS:apaebwq:1,2017-09-01T19:45:00Z,29.7858,-84.8752,2.08,6.2,1111122 
NERRS,ioos:station:NOAA.NERRS:apaebwq:1,2017-09-01T20:45:00Z,29.7858,-84.8752,1.99,5.4,1111122 
NERRS,ioos:station:NOAA.NERRS:apaebwq:1,2017-09-01T21:45:00Z,29.7858,-84.8752,1.9,7.6,1111122 
NERRS,ioos:station:NOAA.NERRS:apaebwq:1,2017-09-01T23:45:00Z,29.7858,-84.8752,1.81,4.7,1111122 
NERRS,ioos:station:NOAA.NERRS:apaebwq:1,2017-09-02T00:45:00Z,29.7858,-84.8752,1.83,4.3,1111122 
NERRS,ioos:station:NOAA.NERRS:apaebwq:1,2017-09-02T01:45:00Z,29.7858,-84.8752,1.92,5.1,1111122 
NERRS,ioos:station:NOAA.NERRS:apaebwq:1,2017-09-02T02:45:00Z,29.7858,-84.8752,1.99,4.4,1111122 
NERRS,ioos:station:NOAA.NERRS:apaebwq:1,2017-09-02T03:45:00Z,29.7858,-84.8752,2.12,5.3,1111122 
NERRS,ioos:station:NOAA.NERRS:apaebwq:1,2017-09-02T04:45:00Z,29.7858,-84.8752,2.21,5.3,1111122 
NERRS,ioos:station:NOAA.NERRS:apaebwq:1,2017-09-02T05:45:00Z,29.7858,-84.8752,2.18,5.3,1111122 
NERRS,ioos:station:NOAA.NERRS:apaebwq:1,2017-09-02T06:45:00Z,29.7858,-84.8752,2.22,5.1,1111122 
NERRS,ioos:station:NOAA.NERRS:apaebwq:1,2017-09-02T07:45:00Z,29.7858,-84.8752,2.38,4.8,1111122 
NERRS,ioos:station:NOAA.NERRS:apaebwq:1,2017-09-02T08:45:00Z,29.7858,-84.8752,2.34,5.0,1111122 
NERRS,ioos:station:NOAA.NERRS:apaebwq:1,2017-09-02T09:45:00Z,29.7858,-84.8752,2.16,6.2,1111122 
NERRS,ioos:station:NOAA.NERRS:apaebwq:1,2017-09-02T10:45:00Z,29.7858,-84.8752,2.06,5.6,1111122 
NERRS,ioos:station:NOAA.NERRS:apaebwq:1,2017-09-02T11:45:00Z,29.7858,-84.8752,2.09,2.6,1111122 
NERRS,ioos:station:NOAA.NERRS:apaebwq:1,2017-09-02T12:45:00Z,29.7858,-84.8752,2.14,3.8,1111122 
NERRS,ioos:station:NOAA.NERRS:apaebwq:1,2017-09-02T13:45:00Z,29.7858,-84.8752,2.2,2.7,1111122 
NERRS,ioos:station:NOAA.NERRS:apaebwq:1,2017-09-02T14:45:00Z,29.7858,-84.8752,2.2,3.5,1111122 
NERRS,ioos:station:NOAA.NERRS:apaebwq:1,2017-09-02T15:45:00Z,29.7858,-84.8752,2.25,3.4,1111122 
NERRS,ioos:station:NOAA.NERRS:apaebwq:1,2017-09-02T16:45:00Z,29.7858,-84.8752,2.35,5.2,1111122 
NERRS,ioos:station:NOAA.NERRS:apaebwq:1,2017-09-02T17:45:00Z,29.7858,-84.8752,2.36,4.3,1111122 
NERRS,ioos:station:NOAA.NERRS:apaebwq:1,2017-09-02T18:45:00Z,29.7858,-84.8752,2.27,5.7,1111122 
NERRS,ioos:station:NOAA.NERRS:apaebwq:1,2017-09-02T19:45:00Z,29.7858,-84.8752,2.18,6.7,1111122 
NERRS,ioos:station:NOAA.NERRS:apaebwq:1,2017-09-02T20:45:00Z,29.7858,-84.8752,2.13,6.7,1111122 
NERRS,ioos:station:NOAA.NERRS:apaebwq:1,2017-09-02T21:45:00Z,29.7858,-84.8752,2.02,5.9,1111122 
NERRS,ioos:station:NOAA.NERRS:apaebwq:1,2017-09-02T22:45:00Z,29.7858,-84.8752,1.9,6.5,1111122 
NERRS,ioos:station:NOAA.NERRS:apaebwq:1,2017-09-02T23:45:00Z,29.7858,-84.8752,1.8,6.3,1111122 
NERRS,ioos:station:NOAA.NERRS:apaebwq:1,2017-09-03T00:45:00Z,29.7858,-84.8752,1.73,5.7,1111122 
NERRS,ioos:station:NOAA.NERRS:apaebwq:1,2017-09-03T01:45:00Z,29.7858,-84.8752,1.74,3.5,1111122 
NERRS,ioos:station:NOAA.NERRS:apaebwq:1,2017-09-03T02:45:00Z,29.7858,-84.8752,1.85,4.8,1111122 
NERRS,ioos:station:NOAA.NERRS:apaebwq:1,2017-09-03T03:45:00Z,29.7858,-84.8752,1.95,4.9,1111122 
NERRS,ioos:station:NOAA.NERRS:apaebwq:1,2017-09-03T04:45:00Z,29.7858,-84.8752,2.09,5.0,1111122 
NERRS,ioos:station:NOAA.NERRS:apaebwq:1,2017-09-03T05:45:00Z,29.7858,-84.8752,2.21,4.5,1111122 
NERRS,ioos:station:NOAA.NERRS:apaebwq:1,2017-09-03T06:45:00Z,29.7858,-84.8752,2.29,4.1,1111122 
NERRS,ioos:station:NOAA.NERRS:apaebwq:1,2017-09-03T07:45:00Z,29.7858,-84.8752,2.29,2.6,1111122 
NERRS,ioos:station:NOAA.NERRS:apaebwq:1,2017-09-03T08:45:00Z,29.7858,-84.8752,2.25,3.2,1111122 
NERRS,ioos:station:NOAA.NERRS:apaebwq:1,2017-09-03T09:45:00Z,29.7858,-84.8752,2.18,3.4,1111122 
NERRS,ioos:station:NOAA.NERRS:apaebwq:1,2017-09-03T10:45:00Z,29.7858,-84.8752,2.15,2.6,1111122 
NERRS,ioos:station:NOAA.NERRS:apaebwq:1,2017-09-03T11:45:00Z,29.7858,-84.8752,2.15,1.9,1111122 
NERRS,ioos:station:NOAA.NERRS:apaebwq:1,2017-09-03T12:45:00Z,29.7858,-84.8752,2.13,0.8,1111122 
NERRS,ioos:station:NOAA.NERRS:apaebwq:1,2017-09-03T13:45:00Z,29.7858,-84.8752,2.11,0.4,1111122 
NERRS,ioos:station:NOAA.NERRS:apaebwq:1,2017-09-03T14:45:00Z,29.7858,-84.8752,2.16,3.2,1111122 
NERRS,ioos:station:NOAA.NERRS:apaebwq:1,2017-09-03T15:45:00Z,29.7858,-84.8752,2.28,3.2,1111122 
NERRS,ioos:station:NOAA.NERRS:apaebwq:1,2017-09-03T16:45:00Z,29.7858,-84.8752,2.37,4.1,1111122 
NERRS,ioos:station:NOAA.NERRS:apaebwq:1,2017-09-03T17:45:00Z,29.7858,-84.8752,2.38,2.6,1111122 
NERRS,ioos:station:NOAA.NERRS:apaebwq:1,2017-09-03T18:45:00Z,29.7858,-84.8752,2.33,1.1,1111122 
NERRS,ioos:station:NOAA.NERRS:apaebwq:1,2017-09-03T19:45:00Z,29.7858,-84.8752,2.23,6.0,1111122 
NERRS,ioos:station:NOAA.NERRS:apaebwq:1,2017-09-03T20:45:00Z,29.7858,-84.8752,2.09,5.8,1111122 
NERRS,ioos:station:NOAA.NERRS:apaebwq:1,2017-09-03T21:45:00Z,29.7858,-84.8752,2.01,5.4,1111122 
NERRS,ioos:station:NOAA.NERRS:apaebwq:1,2017-09-03T22:45:00Z,29.7858,-84.8752,1.92,5.5,1111122 
NERRS,ioos:station:NOAA.NERRS:apaebwq:1,2017-09-03T23:45:00Z,29.7858,-84.8752,1.81,5.6,1111122 
NERRS,ioos:station:NOAA.NERRS:apaebwq:1,2017-09-04T00:45:00Z,29.7858,-84.8752,1.75,5.2,1111122 
NERRS,ioos:station:NOAA.NERRS:apaebwq:1,2017-09-04T01:45:00Z,29.7858,-84.8752,1.71,3.8,1111122 
NERRS,ioos:station:NOAA.NERRS:apaebwq:1,2017-09-04T02:45:00Z,29.7858,-84.8752,1.73,2.7,1111122 
NERRS,ioos:station:NOAA.NERRS:apaebwq:1,2017-09-04T03:45:00Z,29.7858,-84.8752,1.86,4.8,1111122 
NERRS,ioos:station:NOAA.NERRS:apaebwq:1,2017-09-04T04:45:00Z,29.7858,-84.8752,2.02,5.4,1111122 
NERRS,ioos:station:NOAA.NERRS:apaebwq:1,2017-09-04T05:45:00Z,29.7858,-84.8752,2.14,5.3,1111122 
NERRS,ioos:station:NOAA.NERRS:apaebwq:1,2017-09-04T06:45:00Z,29.7858,-84.8752,2.23,4.3,1111122 
NERRS,ioos:station:NOAA.NERRS:apaebwq:1,2017-09-04T07:45:00Z,29.7858,-84.8752,2.28,3.6,1111122 
NERRS,ioos:station:NOAA.NERRS:apaebwq:1,2017-09-04T08:45:00Z,29.7858,-84.8752,2.3,4.4,1111122 
NERRS,ioos:station:NOAA.NERRS:apaebwq:1,2017-09-04T09:45:00Z,29.7858,-84.8752,2.23,2.0,1111122 
NERRS,ioos:station:NOAA.NERRS:apaebwq:1,2017-09-04T10:45:00Z,29.7858,-84.8752,2.15,2.8,1111122 
NERRS,ioos:station:NOAA.NERRS:apaebwq:1,2017-09-04T11:45:00Z,29.7858,-84.8752,2.08,3.3,1111122 
NERRS,ioos:station:NOAA.NERRS:apaebwq:1,2017-09-04T12:45:00Z,29.7858,-84.8752,2.05,3.1,1111122 
NERRS,ioos:station:NOAA.NERRS:apaebwq:1,2017-09-04T13:45:00Z,29.7858,-84.8752,2.07,1.7,1111122 
NERRS,ioos:station:NOAA.NERRS:apaebwq:1,2017-09-04T14:45:00Z,29.7858,-84.8752,2.12,4.0,1111122 
NERRS,ioos:station:NOAA.NERRS:apaebwq:1,2017-09-04T15:45:00Z,29.7858,-84.8752,2.22,3.6,1111122 
NERRS,ioos:station:NOAA.NERRS:apaebwq:1,2017-09-04T16:45:00Z,29.7858,-84.8752,2.33,3.3,1111122 
NERRS,ioos:station:NOAA.NERRS:apaebwq:1,2017-09-04T17:45:00Z,29.7858,-84.8752,2.39,3.1,1111122 
NERRS,ioos:station:NOAA.NERRS:apaebwq:1,2017-09-04T18:45:00Z,29.7858,-84.8752,2.4,3.1,1111122 
NERRS,ioos:station:NOAA.NERRS:apaebwq:1,2017-09-04T19:45:00Z,29.7858,-84.8752,2.33,1.4,1111122 
NERRS,ioos:station:NOAA.NERRS:apaebwq:1,2017-09-04T20:45:00Z,29.7858,-84.8752,2.24,2.0,1111122 
NERRS,ioos:station:NOAA.NERRS:apaebwq:1,2017-09-04T21:45:00Z,29.7858,-84.8752,2.13,2.8,1111122 
NERRS,ioos:station:NOAA.NERRS:apaebwq:1,2017-09-04T23:45:00Z,29.7858,-84.8752,1.9,2.8,1111122 
NERRS,ioos:station:NOAA.NERRS:apaebwq:1,2017-09-05T00:45:00Z,29.7858,-84.8752,1.81,2.6,1111122 
NERRS,ioos:station:NOAA.NERRS:apaebwq:1,2017-09-05T01:45:00Z,29.7858,-84.8752,1.74,2.0,1111122 
NERRS,ioos:station:NOAA.NERRS:apaebwq:1,2017-09-05T02:45:00Z,29.7858,-84.8752,1.72,0.4,1111122 
NERRS,ioos:station:NOAA.NERRS:apaebwq:1,2017-09-05T03:45:00Z,29.7858,-84.8752,1.79,1.7,1111122 
NERRS,ioos:station:NOAA.NERRS:apaebwq:1,2017-09-05T04:45:00Z,29.7858,-84.8752,1.94,2.0,1111122 
NERRS,ioos:station:NOAA.NERRS:apaebwq:1,2017-09-05T05:45:00Z,29.7858,-84.8752,2.1,1.9,1111122 
NERRS,ioos:station:NOAA.NERRS:apaebwq:1,2017-09-05T06:45:00Z,29.7858,-84.8752,2.21,1.5,1111122 
NERRS,ioos:station:NOAA.NERRS:apaebwq:1,2017-09-05T07:45:00Z,29.7858,-84.8752,2.28,0.7,1111122 
NERRS,ioos:station:NOAA.NERRS:apaebwq:1,2017-09-05T08:45:00Z,29.7858,-84.8752,2.3,0.4,1111122 
NERRS,ioos:station:NOAA.NERRS:apaebwq:1,2017-09-05T09:45:00Z,29.7858,-84.8752,2.26,1.4,1111122 
NERRS,ioos:station:NOAA.NERRS:apaebwq:1,2017-09-05T10:45:00Z,29.7858,-84.8752,2.17,0.3,1111122 
NERRS,ioos:station:NOAA.NERRS:apaebwq:1,2017-09-05T11:45:00Z,29.7858,-84.8752,2.09,0.2,1111122 
NERRS,ioos:station:NOAA.NERRS:apaebwq:1,2017-09-05T12:45:00Z,29.7858,-84.8752,2.04,0.3,1111122 
NERRS,ioos:station:NOAA.NERRS:apaebwq:1,2017-09-05T13:45:00Z,29.7858,-84.8752,2.03,0.1,1111122 
NERRS,ioos:station:NOAA.NERRS:apaebwq:1,2017-09-05T15:45:00Z,29.7858,-84.8752,2.13,1.9,1111122 
NERRS,ioos:station:NOAA.NERRS:apaebwq:1,2017-09-05T16:45:00Z,29.7858,-84.8752,2.26,3.3,1111122 
NERRS,ioos:station:NOAA.NERRS:apaebwq:1,2017-09-05T17:45:00Z,29.7858,-84.8752,2.36,2.6,1111122 
NERRS,ioos:station:NOAA.NERRS:apaebwq:1,2017-09-05T18:45:00Z,29.7858,-84.8752,2.41,2.9,1111122 
NERRS,ioos:station:NOAA.NERRS:apaebwq:1,2017-09-05T19:45:00Z,29.7858,-84.8752,2.42,3.3,1111122 
NERRS,ioos:station:NOAA.NERRS:apaebwq:1,2017-09-05T20:45:00Z,29.7858,-84.8752,2.36,2.2,1111122 
NERRS,ioos:station:NOAA.NERRS:apaebwq:1,2017-09-05T21:45:00Z,29.7858,-84.8752,2.25,2.4,1111122 
NERRS,ioos:station:NOAA.NERRS:apaebwq:1,2017-09-05T22:45:00Z,29.7858,-84.8752,2.16,2.7,1111122 
NERRS,ioos:station:NOAA.NERRS:apaebwq:1,2017-09-05T23:45:00Z,29.7858,-84.8752,2.04,2.6,1111122 
NERRS,ioos:station:NOAA.NERRS:apaebwq:1,2017-09-06T00:45:00Z,29.7858,-84.8752,1.93,2.0,1111122 
NERRS,ioos:station:NOAA.NERRS:apaebwq:1,2017-09-15T14:45:00Z,29.7858,-84.8752,2.43,5.4,1111122 
NERRS,ioos:station:NOAA.NERRS:apaebwq:1,2017-09-15T15:45:00Z,29.7858,-84.8752,2.39,4.1,1111122 
NERRS,ioos:station:NOAA.NERRS:apaebwq:1,2017-09-15T16:45:00Z,29.7858,-84.8752,2.32,4.2,1111122 
NERRS,ioos:station:NOAA.NERRS:apaebwq:1,2017-09-15T17:45:00Z,29.7858,-84.8752,2.25,4.0,1111122 
NERRS,ioos:station:NOAA.NERRS:apaebwq:1,2017-09-15T18:45:00Z,29.7858,-84.8752,2.19,4.9,1111122 
NERRS,ioos:station:NOAA.NERRS:apaebwq:1,2017-09-15T19:45:00Z,29.7858,-84.8752,2.07,4.8,1111122 
NERRS,ioos:station:NOAA.NERRS:apaebwq:1,2017-09-15T20:45:00Z,29.7858,-84.8752,1.95,4.8,1111122 
NERRS,ioos:station:NOAA.NERRS:apaebwq:1,2017-09-15T21:45:00Z,29.7858,-84.8752,1.86,4.0,1111122 
NERRS,ioos:station:NOAA.NERRS:apaebwq:1,2017-09-15T22:45:00Z,29.7858,-84.8752,1.79,3.2,1111122 
NERRS,ioos:station:NOAA.NERRS:apaebwq:1,2017-09-15T23:45:00Z,29.7858,-84.8752,1.75,3.9,1111122 
NERRS,ioos:station:NOAA.NERRS:apaebwq:1,2017-09-16T00:45:00Z,29.7858,-84.8752,1.75,4.5,1111122 
NERRS,ioos:station:NOAA.NERRS:apaebwq:1,2017-09-16T01:45:00Z,29.7858,-84.8752,1.83,3.6,1111122 
NERRS,ioos:station:NOAA.NERRS:apaebwq:1,2017-09-16T02:45:00Z,29.7858,-84.8752,2.02,3.0,1111122 
NERRS,ioos:station:NOAA.NERRS:apaebwq:1,2017-09-16T03:45:00Z,29.7858,-84.8752,2.17,3.1,1111122 
NERRS,ioos:station:NOAA.NERRS:apaebwq:1,2017-09-16T04:45:00Z,29.7858,-84.8752,2.25,2.6,1111122 
NERRS,ioos:station:NOAA.NERRS:apaebwq:1,2017-09-16T05:45:00Z,29.7858,-84.8752,2.31,4.5,1111122 
NERRS,ioos:station:NOAA.NERRS:apaebwq:1,2017-09-16T06:45:00Z,29.7858,-84.8752,2.35,4.7,1111122 
NERRS,ioos:station:NOAA.NERRS:apaebwq:1,2017-09-16T07:45:00Z,29.7858,-84.8752,2.34,4.2,1111122 
NERRS,ioos:station:NOAA.NERRS:apaebwq:1,2017-09-16T08:45:00Z,29.7858,-84.8752,2.3,3.6,1111122 
NERRS,ioos:station:NOAA.NERRS:apaebwq:1,2017-09-16T09:45:00Z,29.7858,-84.8752,2.22,3.9,1111122 
NERRS,ioos:station:NOAA.NERRS:apaebwq:1,2017-09-16T10:45:00Z,29.7858,-84.8752,2.14,3.3,1111122 
NERRS,ioos:station:NOAA.NERRS:apaebwq:1,2017-09-16T11:45:00Z,29.7858,-84.8752,2.14,3.5,1111122 
NERRS,ioos:station:NOAA.NERRS:apaebwq:1,2017-09-16T12:45:00Z,29.7858,-84.8752,2.19,4.4,1111122 
NERRS,ioos:station:NOAA.NERRS:apaebwq:1,2017-09-16T13:45:00Z,29.7858,-84.8752,2.25,3.7,1111122 
NERRS,ioos:station:NOAA.NERRS:apaebwq:1,2017-09-16T14:45:00Z,29.7858,-84.8752,2.33,6.2,1111122 
NERRS,ioos:station:NOAA.NERRS:apaebwq:1,2017-09-16T15:45:00Z,29.7858,-84.8752,2.41,6.5,1111122 
NERRS,ioos:station:NOAA.NERRS:apaebwq:1,2017-09-16T16:45:00Z,29.7858,-84.8752,2.41,5.8,1111122 
NERRS,ioos:station:NOAA.NERRS:apaebwq:1,2017-09-16T17:45:00Z,29.7858,-84.8752,2.34,6.3,1111122 
NERRS,ioos:station:NOAA.NERRS:apaebwq:1,2017-09-16T18:45:00Z,29.7858,-84.8752,2.25,5.5,1111122 
NERRS,ioos:station:NOAA.NERRS:apaebwq:1,2017-09-16T19:45:00Z,29.7858,-84.8752,2.16,5.2,1111122 
NERRS,ioos:station:NOAA.NERRS:apaebwq:1,2017-09-16T20:45:00Z,29.7858,-84.8752,2.07,5.7,1111122 
NERRS,ioos:station:NOAA.NERRS:apaebwq:1,2017-09-16T21:45:00Z,29.7858,-84.8752,1.95,5.7,1111122 
NERRS,ioos:station:NOAA.NERRS:apaebwq:1,2017-09-16T22:45:00Z,29.7858,-84.8752,1.81,5.5,1111122 
NERRS,ioos:station:NOAA.NERRS:apaebwq:1,2017-09-16T23:45:00Z,29.7858,-84.8752,1.74,5.3,1111122 
NERRS,ioos:station:NOAA.NERRS:apaebwq:1,2017-09-17T00:45:00Z,29.7858,-84.8752,1.71,4.8,1111122 
NERRS,ioos:station:NOAA.NERRS:apaebwq:1,2017-09-17T01:45:00Z,29.7858,-84.8752,1.73,5.6,1111122 
NERRS,ioos:station:NOAA.NERRS:apaebwq:1,2017-09-17T02:45:00Z,29.7858,-84.8752,1.83,5.8,1111122 
NERRS,ioos:station:NOAA.NERRS:apaebwq:1,2017-09-17T03:45:00Z,29.7858,-84.8752,2.0,5.3,1111122 
NERRS,ioos:station:NOAA.NERRS:apaebwq:1,2017-09-17T04:45:00Z,29.7858,-84.8752,2.15,5.7,1111122 
NERRS,ioos:station:NOAA.NERRS:apaebwq:1,2017-09-17T05:45:00Z,29.7858,-84.8752,2.24,5.2,1111122 
NERRS,ioos:station:NOAA.NERRS:apaebwq:1,2017-09-17T06:45:00Z,29.7858,-84.8752,2.3,5.4,1111122 
NERRS,ioos:station:NOAA.NERRS:apaebwq:1,2017-09-17T07:45:00Z,29.7858,-84.8752,2.3,5.0,1111122 
NERRS,ioos:station:NOAA.NERRS:apaebwq:1,2017-09-17T08:45:00Z,29.7858,-84.8752,2.24,3.3,1111122 
NERRS,ioos:station:NOAA.NERRS:apaebwq:1,2017-09-17T09:45:00Z,29.7858,-84.8752,2.17,2.0,1111122 
NERRS,ioos:station:NOAA.NERRS:apaebwq:1,2017-09-17T10:45:00Z,29.7858,-84.8752,2.09,1.7,1111122 
NERRS,ioos:station:NOAA.NERRS:apaebwq:1,2017-09-17T11:45:00Z,29.7858,-84.8752,2.05,1.7,1111122 
NERRS,ioos:station:NOAA.NERRS:apaebwq:1,2017-09-17T12:45:00Z,29.7858,-84.8752,2.04,1.6,1111122 
NERRS,ioos:station:NOAA.NERRS:apaebwq:1,2017-09-17T13:45:00Z,29.7858,-84.8752,2.09,2.1,1111122 
NERRS,ioos:station:NOAA.NERRS:apaebwq:1,2017-09-17T14:45:00Z,29.7858,-84.8752,2.2,1.7,1111122 
NERRS,ioos:station:NOAA.NERRS:apaebwq:1,2017-09-17T15:45:00Z,29.7858,-84.8752,2.31,1.5,1111122 
NERRS,ioos:station:NOAA.NERRS:apaebwq:1,2017-09-17T16:45:00Z,29.7858,-84.8752,2.39,2.4,1111122 
NERRS,ioos:station:NOAA.NERRS:apaebwq:1,2017-09-17T17:45:00Z,29.7858,-84.8752,2.39,2.9,1111122 
NERRS,ioos:station:NOAA.NERRS:apaebwq:1,2017-09-17T18:45:00Z,29.7858,-84.8752,2.32,2.4,1111122 
NERRS,ioos:station:NOAA.NERRS:apaebwq:1,2017-09-17T19:45:00Z,29.7858,-84.8752,2.23,3.2,1111122 
NERRS,ioos:station:NOAA.NERRS:apaebwq:1,2017-09-17T20:45:00Z,29.7858,-84.8752,2.16,3.1,1111122 
NERRS,ioos:station:NOAA.NERRS:apaebwq:1,2017-09-17T21:45:00Z,29.7858,-84.8752,2.05,4.8,1111122 
NERRS,ioos:station:NOAA.NERRS:apaebwq:1,2017-09-17T22:45:00Z,29.7858,-84.8752,1.93,3.2,1111122 
NERRS,ioos:station:NOAA.NERRS:apaebwq:1,2017-09-17T23:45:00Z,29.7858,-84.8752,1.84,2.6,1111122 
NERRS,ioos:station:NOAA.NERRS:apaebwq:1,2017-09-18T00:45:00Z,29.7858,-84.8752,1.76,2.0,1111122 
NERRS,ioos:station:NOAA.NERRS:apaebwq:1,2017-09-18T01:45:00Z,29.7858,-84.8752,1.71,2.8,1111122 
NERRS,ioos:station:NOAA.NERRS:apaebwq:1,2017-09-18T02:45:00Z,29.7858,-84.8752,1.76,4.6,1111122 
NERRS,ioos:station:NOAA.NERRS:apaebwq:1,2017-09-18T03:45:00Z,29.7858,-84.8752,1.91,3.9,1111122 
NERRS,ioos:station:NOAA.NERRS:apaebwq:1,2017-09-18T04:45:00Z,29.7858,-84.8752,2.08,3.8,1111122 
NERRS,ioos:station:NOAA.NERRS:apaebwq:1,2017-09-18T05:45:00Z,29.7858,-84.8752,2.19,2.9,1111122 
NERRS,ioos:station:NOAA.NERRS:apaebwq:1,2017-09-18T06:45:00Z,29.7858,-84.8752,2.24,2.2,1111122 
NERRS,ioos:station:NOAA.NERRS:apaebwq:1,2017-09-18T07:45:00Z,29.7858,-84.8752,2.26,1.7,1111122 
NERRS,ioos:station:NOAA.NERRS:apaebwq:1,2017-09-18T08:45:00Z,29.7858,-84.8752,2.24,1.3,1111122 
NERRS,ioos:station:NOAA.NERRS:apaebwq:1,2017-09-18T09:45:00Z,29.7858,-84.8752,2.17,0.9,1111122 
NERRS,ioos:station:NOAA.NERRS:apaebwq:1,2017-09-18T10:45:00Z,29.7858,-84.8752,2.09,0.5,1111122 
NERRS,ioos:station:NOAA.NERRS:apaebwq:1,2017-09-18T11:45:00Z,29.7858,-84.8752,2.01,0.5,1111122 
NERRS,ioos:station:NOAA.NERRS:apaebwq:1,2017-09-18T12:45:00Z,29.7858,-84.8752,1.97,0.3,1111122 
NERRS,ioos:station:NOAA.NERRS:apaebwq:1,2017-09-18T13:45:00Z,29.7858,-84.8752,1.96,0.4,1111122 
NERRS,ioos:station:NOAA.NERRS:apaebwq:1,2017-09-18T14:45:00Z,29.7858,-84.8752,2.03,1.2,1111122 
NERRS,ioos:station:NOAA.NERRS:apaebwq:1,2017-09-18T15:45:00Z,29.7858,-84.8752,2.15,3.1,1111122 
NERRS,ioos:station:NOAA.NERRS:apaebwq:1,2017-09-18T16:45:00Z,29.7858,-84.8752,2.28,4.4,1111122 
NERRS,ioos:station:NOAA.NERRS:apaebwq:1,2017-09-19T07:45:00Z,29.7858,-84.8752,2.29,1.7,1111122 
NERRS,ioos:station:NOAA.NERRS:apaebwq:1,2017-09-19T08:45:00Z,29.7858,-84.8752,2.31,0.9,1111122 
NERRS,ioos:station:NOAA.NERRS:apaebwq:1,2017-09-19T09:45:00Z,29.7858,-84.8752,2.24,1.6,1111122 
NERRS,ioos:station:NOAA.NERRS:apaebwq:1,2017-09-19T10:45:00Z,29.7858,-84.8752,2.13,1.3,1111122 
NERRS,ioos:station:NOAA.NERRS:apaebwq:1,2017-09-19T11:45:00Z,29.7858,-84.8752,2.03,1.1,1111122 
NERRS,ioos:station:NOAA.NERRS:apaebwq:1,2017-09-19T12:45:00Z,29.7858,-84.8752,1.97,0.5,1111122 
NERRS,ioos:station:NOAA.NERRS:apaebwq:1,2017-09-19T13:45:00Z,29.7858,-84.8752,1.96,0.4,1111122 
NERRS,ioos:station:NOAA.NERRS:apaebwq:1,2017-09-19T14:45:00Z,29.7858,-84.8752,2.0,1.0,1111122 
NERRS,ioos:station:NOAA.NERRS:apaebwq:1,2017-09-19T15:45:00Z,29.7858,-84.8752,2.08,2.0,1111122 
NERRS,ioos:station:NOAA.NERRS:apaebwq:1,2017-09-19T16:45:00Z,29.7858,-84.8752,2.18,2.4,1111122 
NERRS,ioos:station:NOAA.NERRS:apaebwq:1,2017-09-19T17:45:00Z,29.7858,-84.8752,2.3,2.7,1111122 
NERRS,ioos:station:NOAA.NERRS:apaebwq:1,2017-09-19T18:45:00Z,29.7858,-84.8752,2.4,2.5,1111122 
NERRS,ioos:station:NOAA.NERRS:apaebwq:1,2017-09-19T19:45:00Z,29.7858,-84.8752,2.45,1.5,1111122 
NERRS,ioos:station:NOAA.NERRS:apaebwq:1,2017-09-19T20:45:00Z,29.7858,-84.8752,2.4,1.9,1111122 
NERRS,ioos:station:NOAA.NERRS:apaebwq:1,2017-09-19T21:45:00Z,29.7858,-84.8752,2.29,3.4,1111122 
NERRS,ioos:station:NOAA.NERRS:apaebwq:1,2017-09-19T22:45:00Z,29.7858,-84.8752,2.14,6.0,1111122 
NERRS,ioos:station:NOAA.NERRS:apaebwq:1,2017-09-19T23:45:00Z,29.7858,-84.8752,2.01,5.6,1111122 
NERRS,ioos:station:NOAA.NERRS:apaebwq:1,2017-09-20T00:45:00Z,29.7858,-84.8752,1.91,5.0,1111122 
NERRS,ioos:station:NOAA.NERRS:apaebwq:1,2017-09-20T01:45:00Z,29.7858,-84.8752,1.82,5.6,1111122 
NERRS,ioos:station:NOAA.NERRS:apaebwq:1,2017-09-20T02:45:00Z,29.7858,-84.8752,1.78,6.2,1111122 
NERRS,ioos:station:NOAA.NERRS:apaebwq:1,2017-09-20T03:45:00Z,29.7858,-84.8752,1.82,2.9,1111122 
NERRS,ioos:station:NOAA.NERRS:apaebwq:1,2017-09-20T04:45:00Z,29.7858,-84.8752,1.94,3.1,1111122 
NERRS,ioos:station:NOAA.NERRS:apaebwq:1,2017-09-20T05:45:00Z,29.7858,-84.8752,2.08,6.1,1111122 
NERRS,ioos:station:NOAA.NERRS:apaebwq:1,2017-09-20T06:45:00Z,29.7858,-84.8752,2.21,5.8,1111122 
NERRS,ioos:station:NOAA.NERRS:apaebwq:1,2017-09-20T07:45:00Z,29.7858,-84.8752,2.29,5.1,1111122 
NERRS,ioos:station:NOAA.NERRS:apaebwq:1,2017-09-20T08:45:00Z,29.7858,-84.8752,2.31,3.7,1111122 
NERRS,ioos:station:NOAA.NERRS:apaebwq:1,2017-09-20T12:45:00Z,29.7858,-84.8752,1.94,4.2,1111122 
NERRS,ioos:station:NOAA.NERRS:apaebwq:1,2017-09-20T13:45:00Z,29.7858,-84.8752,1.88,3.5,1111122 
NERRS,ioos:station:NOAA.NERRS:apaebwq:1,2017-09-20T14:45:00Z,29.7858,-84.8752,1.84,3.4,1111122 
NERRS,ioos:station:NOAA.NERRS:apaebwq:1,2017-09-20T15:45:00Z,29.7858,-84.8752,1.86,2.9,1111122 
NERRS,ioos:station:NOAA.NERRS:apaebwq:1,2017-09-20T16:45:00Z,29.7858,-84.8752,1.97,4.2,1111122 
NERRS,ioos:station:NOAA.NERRS:apaebwq:1,2017-09-20T17:45:00Z,29.7858,-84.8752,2.12,7.1,1111122 
NERRS,ioos:station:NOAA.NERRS:apaebwq:1,2017-09-20T18:45:00Z,29.7858,-84.8752,2.26,6.7,1111122 
NERRS,ioos:station:NOAA.NERRS:apaebwq:1,2017-09-20T19:45:00Z,29.7858,-84.8752,2.37,6.6,1111122 
NERRS,ioos:station:NOAA.NERRS:apaebwq:1,2017-09-20T20:45:00Z,29.7858,-84.8752,2.32,5.9,1111122 
NERRS,ioos:station:NOAA.NERRS:apaebwq:1,2017-09-20T21:45:00Z,29.7858,-84.8752,2.27,4.6,1111122 
NERRS,ioos:station:NOAA.NERRS:apaebwq:1,2017-09-20T22:45:00Z,29.7858,-84.8752,2.15,7.9,1111122 
NERRS,ioos:station:NOAA.NERRS:apaebwq:1,2017-09-20T23:45:00Z,29.7858,-84.8752,2.03,7.3,1111122 
NERRS,ioos:station:NOAA.NERRS:apaebwq:1,2017-09-21T00:45:00Z,29.7858,-84.8752,1.94,7.7,1111122 
NERRS,ioos:station:NOAA.NERRS:apaebwq:1,2017-09-21T01:45:00Z,29.7858,-84.8752,1.86,6.7,1111122 
NERRS,ioos:station:NOAA.NERRS:apaebwq:1,2017-09-21T02:45:00Z,29.7858,-84.8752,1.81,6.5,1111122 
NERRS,ioos:station:NOAA.NERRS:apaebwq:1,2017-09-21T03:45:00Z,29.7858,-84.8752,1.82,4.2,1111122 
NERRS,ioos:station:NOAA.NERRS:apaebwq:1,2017-09-21T04:45:00Z,29.7858,-84.8752,1.91,6.8,1111122 
NERRS,ioos:station:NOAA.NERRS:apaebwq:1,2017-09-21T05:45:00Z,29.7858,-84.8752,2.05,6.8,1111122 
NERRS,ioos:station:NOAA.NERRS:apaebwq:1,2017-09-21T06:45:00Z,29.7858,-84.8752,2.17,6.8,1111122 
NERRS,ioos:station:NOAA.NERRS:apaebwq:1,2017-09-21T07:45:00Z,29.7858,-84.8752,2.27,6.3,1111122 
NERRS,ioos:station:NOAA.NERRS:apaebwq:1,2017-09-21T08:45:00Z,29.7858,-84.8752,2.33,5.0,1111122 
NERRS,ioos:station:NOAA.NERRS:apaebwq:1,2017-09-21T09:45:00Z,29.7858,-84.8752,2.3,3.4,1111122 
NERRS,ioos:station:NOAA.NERRS:apaebwq:1,2017-09-21T10:45:00Z,29.7858,-84.8752,2.21,6.2,1111122 
NERRS,ioos:station:NOAA.NERRS:apaebwq:1,2017-09-21T11:45:00Z,29.7858,-84.8752,2.11,6.1,1111122 
NERRS,ioos:station:NOAA.NERRS:apaebwq:1,2017-09-21T12:45:00Z,29.7858,-84.8752,2.0,5.3,1111122 
NERRS,ioos:station:NOAA.NERRS:apaebwq:1,2017-09-21T13:45:00Z,29.7858,-84.8752,1.9,4.4,1111122 
NERRS,ioos:station:NOAA.NERRS:apaebwq:1,2017-09-21T14:45:00Z,29.7858,-84.8752,1.84,3.8,1111122 
NERRS,ioos:station:NOAA.NERRS:apaebwq:1,2017-09-21T15:45:00Z,29.7858,-84.8752,1.83,2.3,1111122 
NERRS,ioos:station:NOAA.NERRS:apaebwq:1,2017-09-21T16:45:00Z,29.7858,-84.8752,1.9,2.9,1111122 
NERRS,ioos:station:NOAA.NERRS:apaebwq:1,2017-09-21T17:45:00Z,29.7858,-84.8752,2.06,6.4,1111122 